Regional Weather Roundup
Issued by NWS

Home | Current Version | Previous Version | Graphics & Text | Print | Product List | Glossary On
Versions: 1 2 3 4 5 6 7 8 9 10 11 12 13 14 15 16 17 18 19 20 21 22 23 24 25 26 27 28 29 30 31 32 33 34 35 36 37 38 39 40 41 42 43 44 45 46 47 48 49 50
000
ASUS43 KMPX 250610
RWRMN
WEATHER ROUNDUP FOR MINNESOTA
NATIONAL WEATHER SERVICE TWIN CITIES/CHANHASSEN MN
100 AM CDT FRI APR 25 2014


NOTE: "FAIR" INDICATES FEW OR NO CLOUDS BELOW 12,000 FEET WITH NO
SIGNIFICANT WEATHER AND/OR OBSTRUCTIONS TO VISIBILITY. N/A MEANS
CURRENT SKY AND/OR WEATHER CONDITIONS ARE NOT AVAILABLE.

MNZ060>063-068>070-250700-
   Twin Cities Metro

CITY           SKY/WX    TMP DP  RH WIND       PRES   REMARKS
TWIN CITIES    FAIR      38  37  97 CALM      29.73S
6HR MIN TEMP:  38; 6HR MAX TEMP:  45;

ST PAUL        FAIR      36  36 100 CALM      29.74S FOG
CRYSTAL        FAIR      37  35  92 S3        29.71F FOG
BLAINE         FOG       36  36 100 CALM      29.72F VSB 1/2
EDEN PRAIRIE   FAIR      39  38  96 CALM      29.72S FOG
6HR MIN TEMP:  38; 6HR MAX TEMP:  47;

LAKEVILLE      FAIR      34  34 100 SW3       29.73S FOG
SOUTH ST PAUL  FAIR      40  38  93 CALM      29.73S
LAKE ELMO      FOG       34  34 100 CALM      29.73F VSB 1/2
$$
MNZ001>005-007-008-013>017-022>024-027-028-250700-
   Northwest Minnesota

CITY           SKY/WX    TMP DP  RH WIND       PRES   REMARKS
BEMIDJI        CLOUDY    32  32 100 CALM      29.66F
HALLOCK        DRIZZLE   36  34  93 CALM      29.73S
ROSEAU         LGT SNOW  34  28  80 NE3       29.72F
WARROAD        LGT SNOW  34  28  80 NE6       29.73S WCI  29
THIEF RVR FALL CLOUDY    34  30  86 NE5       29.71S WCI  30
CROOKSTON      CLOUDY    36  36 100 CALM      29.72R FOG
FOSSTON        MIX PCPN  30  30 100 CALM      29.69S
DETROIT LAKES  FOG       36  36 100 NW5       29.70R VSB 1/2
MOORHEAD       CLOUDY    39  39 100 CALM      29.72S FOG
PARK RAPIDS    FOG       32  32 100 SW6       29.68R VSB 3/4 WCI  26
$$
MNZ006-009>011-018-025>026-250700-
   North Central Minnesota

CITY           SKY/WX    TMP DP  RH WIND       PRES   REMARKS
BAUDETTE       LGT SNOW  33  32  96 NE7       29.70S FOG     WCI  27
FLAG ISLAND    LGT SNOW  34  32  93 NE6       29.72F WCI  29
INTL FALLS     LGT SNOW  33  31  92 E6        29.69S VSB 1   WCI  28
6HR MIN TEMP:  33; 6HR MAX TEMP:  33; 6HR PCP:  0.31;

WASKISH        LGT SNOW  34  32  93 CALM      29.69R
BIG FORK       CLOUDY    34  30  86 CALM      29.67F
LONGVILLE      CLOUDY    32  32 100 CALM      29.67S FOG
GRAND RAPIDS   CLOUDY    32  30  93 CALM      29.66F
CRANE LAKE     LGT SNOW  30  30 100 CALM      29.70F
ORR            LGT SNOW  32  30  93 CALM      29.65F
COOK           LGT SNOW  32  32 100 CALM      29.67F
$$
MNZ012-019>021-037-250700-
   Northeast Minnesota

CITY           SKY/WX    TMP DP  RH WIND       PRES   REMARKS
DULUTH         FRZ DRZL  33  30  88 CALM      29.65S
6HR MIN TEMP:  32; 6HR MAX TEMP:  33; 6HR PCP:  0.10;

ELY            LGT SNOW  32  30  93 E6        29.65F WCI  26
HIBBING        LGT SNOW  33  31  92 CALM      29.66S FOG
EVELETH        LGT SNOW  32  32 100 CALM      29.66F
DULUTH HARBOR  CLOUDY    34  30  86 CALM      29.68F
TWO HARBORS    LGT SNOW  32  27  80 NE7       29.64F WCI  26
SILVER BAY     LGT SNOW  30  30 100 NE10G16   29.65F WCI  21
GRAND MARAIS     N/A     34  31  88 NE22G33   29.75F WCI  22
G MARAIS ARPRT LGT SNOW  30  27  86 E18G24    29.71F VSB 3/4 WCI  18
$$
MNZ029>031-032-039>041-046>048-054>057-064-250700-
   West Central Minnesota

CITY           SKY/WX    TMP DP  RH WIND       PRES   REMARKS
FERGUS FALLS   FAIR      37  36  93 SW6       29.69S
WHEATON        FAIR      43  39  87 SW6       29.74R
MORRIS         FAIR      39  36  87 SW7       29.70S
ALEXANDRIA     FAIR      35  33  92 SW5       29.71S WCI  31
ELBOW LAKE     FAIR      35  34  96 W6        29.71S WCI  29
WADENA         FOG       34  32  93 CALM      29.68S VSB 3/4
GLENWOOD       FAIR      37  37 100 SW6       29.71S
APPLETON       FAIR      39  37  93 W7        29.72S
BENSON         FAIR      36  34  93 W8        29.71F
ORTONVILLE     FAIR      41  37  87 SW6       29.73S
MADISON        FAIR      41  39  93 SW6       29.73S
WILLMAR        FAIR      39  37  93 SW8       29.73S
$$
MNZ033>034-036-042>043-049>051-058-059-250700-
   Central Minnesota

CITY           SKY/WX    TMP DP  RH WIND       PRES   REMARKS
ST CLOUD       FAIR      38  35  89 CALM      29.70F FOG
6HR MIN TEMP:  36; 6HR MAX TEMP:  44;

SAUK CENTRE    FAIR      34  34 100 CALM      29.70F FOG
PAYNESVILLE    FAIR      37  36  96 CALM      29.71F FOG
AITKIN         CLOUDY    36  30  80 W3        29.66S HAZE
PINE RIVER     CLOUDY    34  34 100 CALM      29.72R FOG
BRAINERD       HAZE      39  34  82 NW6       29.70R VSB 1/2
STAPLES        FOG       34  34 100 CALM      29.70R VSB 1/4
LONG PRAIRIE   FAIR      36  36 100 CALM      29.70R
LITTLE FALLS   FOG       32  32 100 CALM      29.70R VSB 1/4
LITCHFIELD       N/A     39  39 100 CALM      29.72F FOG
BUFFALO        FAIR      36  34  94 CALM      29.72F FOG
MAPLE LAKE     FAIR      37  37 100 SW3       29.72F FOG
$$
MNZ037-044-045-052-053-250700-
   East Central Minnesota

CITY           SKY/WX    TMP DP  RH WIND       PRES   REMARKS
PRINCETON      FAIR      36  34  93 CALM      29.71S FOG
MORA           CLOUDY    36  34  93 SW3       29.72S FOG
CAMBRIDGE      FAIR      37  32  81 CALM      29.69F
RUSH CITY      CLOUDY    35  34  95 CALM      29.71S FOG
MOOSE LAKE     CLOUDY    32  32 100 CALM      29.66F FOG
HINCKLEY       CLOUDY    36  36 100 SW5       29.69S
CLOQUET          N/A     32  30  93 CALM      29.66S
MCGREGOR       CLOUDY    32  32 100 SW3       29.68S
$$
MNZ071>073-080-081-089-090-097-098-250700-
   Southwest Minnesota

CITY           SKY/WX    TMP DP  RH WIND       PRES   REMARKS
MONTEVIDEO     FAIR      43  43 100 W9        29.73F
GRANITE FALLS  FAIR      42  38  84 S8        29.75S
CANBY          FAIR      41  40  94 SW3       29.75S
MARSHALL       FAIR      41  36  81 SW9       29.74S
REDWOOD FALLS  FAIR      44  39  82 SW10      29.73F
OLIVIA         FAIR      39  36  87 W6        29.72F
PIPESTONE      FAIR      41  37  87 SW6       29.76R
WINDOM         FAIR      41  39  93 S3        29.76S
WORTHINGTON    FAIR      43  36  75 SW9       29.78R
JACKSON        FAIR      41  37  87 SW5       29.76S
TRACY          FAIR      42  39  91 SW7       29.75S
SLAYTON        FAIR      40  39  95 S10       29.76S
$$
MNZ065>067-074>077-082>085-091>093-250700-
   South Central Minnesota

CITY           SKY/WX    TMP DP  RH WIND       PRES   REMARKS
MANKATO          N/A     39  37  93 CALM      29.75S VSB 3/4
NEW ULM        FAIR      41  41 100 SW6       29.74S
ST JAMES       FAIR      43  39  87 SW6       29.76S
FAIRMONT       FAIR      41  37  87 CALM      29.77S
GLENCOE        FOG       37  34  90 S3        29.73S VSB 3/4
FARIBAULT      FAIR      39  36  87 S3        29.74S HAZE
OWATONNA       FAIR      37  37 100 CALM      29.74S FOG
WASECA         FOG       32  28  86 CALM      29.76S VSB 1/4
ALBERT LEA     FOG       37  37 100 SW5       29.75S VSB 1/2
$$
MNZ078>079-086>088-094>096-250700-
   Southeast Minnesota

CITY           SKY/WX    TMP DP  RH WIND       PRES   REMARKS
ROCHESTER      FAIR      39  36  89 NW7       29.74S
6HR MIN TEMP:  39; 6HR MAX TEMP:  46;

RED WING       FAIR      37  36  93 CALM      29.73R FOG
STANTON        FAIR      37  35  92 CALM      29.72S FOG
DODGE CENTER   FOG       39  39 100 W3        29.73F VSB 1/2
WINONA         CLOUDY    45  39  81 NW8       29.74S
AUSTIN           N/A     39  37  93 SW3       29.75R FOG
PRESTON        FAIR      41  39  93 CALM      29.75R
$$
ABBREVIATIONS USED IN REMARKS
   TC - TEMPERATURES IN CELSIUS
  WCI - WIND CHILL INDEX
   HX - HEAT INDEX
  VSB - VISIBILITY
$$


USA.gov is the U.S. government's official web portal to all federal, state and local government web resources and services.